Crane Lake, MN

8:59 PM CST on November 11, 2019 (GMT -0600)
Crane Lake

Weather History for KCDD - October, 2019

Change the Weather History Date:

Monday, October 21, 2019

  Actual Average Record
Temperature  
Mean Temperature 42 °F -  
Max Temperature 48 °F 46 °F 64 °F (2017)
Min Temperature 37 °F 31 °F 19 °F (2011)
Degree Days  
Heating Degree Days 22    
Moisture  
Dew Point 40 °F    
Average Humidity 90    
Maximum Humidity 100    
Minimum Humidity 76    
Precipitation  
Precipitation 0.00 in - - ()
Sea Level Pressure  
Sea Level Pressure 29.64 in    
Wind  
Wind Speed 3 mph (NNE)    
Max Wind Speed 13 mph    
Max Gust Speed 25 mph    
Visibility 8 miles    
Events Rain    
Averages and records for this station are not official NWS values.
T = Trace of Precipitation, MM = Missing Value Source: NWS Daily Summary

Daily Weather History Graph

Daily Weather History Graph

Search for Another Location

Airport or City:

Astronomy

Oct. 21, 2019 Rise Set
Actual Time 7:38 AM CDT 6:10 PM CDT
Civil Twilight 7:06 AM CDT 6:41 PM CDT
Nautical Twilight 6:30 AM CDT 7:18 PM CDT
Astronomical Twilight 5:54 AM CDT 7:54 PM CDT
Moon No Moon Rise 3:13 PM CDT (10/21)
Length of Visible Light 11h 35m
Length of Day
10h 31m
Waning Gibbous, 48% of the Moon is Illuminated
Oct 21
Waning Gibbous
Oct 27
New
Nov 4
First Quarter
Nov 12
Full
Nov 19
Last Quarter

Hourly Weather History & Observations

Time (CDT) Temp. Windchill Dew Point Humidity Pressure Visibility Wind Dir Wind Speed Gust Speed Precip Events Conditions
12:01 AM 37.4 °F - 37.4 °F 100% 29.91 in 10.0 mi Calm Calm - N/A   Scattered Clouds
12:22 AM 39.2 °F - 37.4 °F 93% 29.92 in 10.0 mi Calm Calm - N/A   Mostly Cloudy
12:42 AM 39.2 °F - 37.4 °F 93% 29.92 in 10.0 mi Calm Calm - N/A   Mostly Cloudy
1:02 AM 39.2 °F - 37.4 °F 93% 29.92 in 10.0 mi Calm Calm - N/A   Scattered Clouds
1:21 AM 39.2 °F - 37.4 °F 93% 29.92 in 10.0 mi Calm Calm - N/A   Scattered Clouds
1:42 AM 39.2 °F - 37.4 °F 93% 29.91 in 10.0 mi Calm Calm - N/A   Mostly Cloudy
2:02 AM 39.2 °F - 37.4 °F 93% 29.91 in 10.0 mi Calm Calm - N/A   Scattered Clouds
2:22 AM 39.2 °F - 37.4 °F 93% 29.91 in 10.0 mi Calm Calm - N/A   Mostly Cloudy
2:41 AM 39.2 °F - 37.4 °F 93% 29.90 in 10.0 mi Calm Calm - N/A   Overcast
3:02 AM 39.2 °F - 37.4 °F 93% 29.87 in 10.0 mi Calm Calm - N/A   Scattered Clouds
3:22 AM 39.2 °F - 37.4 °F 93% 29.85 in 10.0 mi Calm Calm - N/A   Clear
3:41 AM 39.2 °F - 37.4 °F 93% 29.86 in 10.0 mi Calm Calm - N/A   Scattered Clouds
4:02 AM 37.4 °F - 37.4 °F 100% 29.85 in 10.0 mi Calm Calm - N/A   Scattered Clouds
4:21 AM 37.4 °F - 37.4 °F 100% 29.85 in 10.0 mi Calm Calm - N/A   Clear
4:41 AM 39.2 °F - 37.4 °F 93% 29.84 in 10.0 mi Calm Calm - N/A   Scattered Clouds
5:02 AM 39.2 °F - 37.4 °F 93% 29.84 in 10.0 mi Calm Calm - N/A   Scattered Clouds
5:22 AM 39.2 °F - 37.4 °F 93% 29.84 in 10.0 mi Calm Calm - N/A   Clear
5:41 AM 39.2 °F - 37.4 °F 93% 29.84 in 10.0 mi Calm Calm - N/A   Clear
6:01 AM 39.2 °F - 37.4 °F 93% 29.83 in 10.0 mi Calm Calm - N/A   Clear
6:22 AM 39.2 °F - 37.4 °F 93% 29.81 in 10.0 mi Calm Calm - N/A   Clear
6:41 AM 39.2 °F - 37.4 °F 93% 29.82 in 10.0 mi Calm Calm - N/A   Clear
7:02 AM 39.2 °F - 37.4 °F 93% 29.81 in 10.0 mi Calm Calm - N/A   Clear
7:21 AM 42.8 °F - 39.2 °F 87% 29.80 in 10.0 mi Calm Calm - N/A   Clear
7:41 AM 42.8 °F - 39.2 °F 87% 29.80 in 10.0 mi Calm Calm - N/A   Clear
8:01 AM 42.8 °F - 39.2 °F 87% 29.80 in 10.0 mi Calm Calm - N/A   Clear
8:22 AM 42.8 °F - 39.2 °F 87% 29.79 in 10.0 mi Calm Calm - N/A   Clear
8:42 AM 42.8 °F - 39.2 °F 87% 29.79 in 10.0 mi Calm Calm - N/A   Clear
9:01 AM 42.8 °F - 39.2 °F 87% 29.79 in 10.0 mi Calm Calm - N/A   Clear
9:21 AM 42.8 °F - 39.2 °F 87% 29.78 in 10.0 mi Calm Calm - N/A   Clear
9:41 AM 44.6 °F - 41.0 °F 87% 29.78 in 10.0 mi Calm Calm - N/A   Clear
10:01 AM 44.6 °F 43.1 °F 41.0 °F 87% 29.77 in 10.0 mi NE 3.5 mph - N/A   Clear
10:22 AM 44.6 °F - 41.0 °F 87% 29.76 in 10.0 mi Calm Calm - N/A   Clear
10:41 AM 44.6 °F - 41.0 °F 87% 29.75 in 10.0 mi Calm Calm - N/A   Scattered Clouds
11:02 AM 44.6 °F - 41.0 °F 87% 29.75 in 10.0 mi Calm Calm - N/A   Scattered Clouds
11:22 AM 44.6 °F 42.2 °F 41.0 °F 87% 29.72 in 10.0 mi NE 4.6 mph - N/A   Scattered Clouds
11:41 AM 44.6 °F 39.7 °F 41.0 °F 87% 29.70 in 10.0 mi NNE 9.2 mph - N/A   Clear
12:02 PM 44.6 °F 40.2 °F 41.0 °F 87% 29.68 in 10.0 mi NE 8.1 mph - N/A   Clear
12:22 PM 44.6 °F 39.7 °F 41.0 °F 87% 29.67 in 10.0 mi NE 9.2 mph 18.4 mph N/A   Clear
12:42 PM 46.4 °F 41.9 °F 41.0 °F 81% 29.65 in 10.0 mi NE 9.2 mph 17.3 mph N/A   Clear
1:01 PM 46.4 °F 41.9 °F 41.0 °F 81% 29.62 in 10.0 mi NE 9.2 mph - N/A   Clear
1:22 PM 48.2 °F - 41.0 °F 76% 29.60 in 10.0 mi NE 12.7 mph 24.2 mph N/A   Clear
1:42 PM 46.4 °F 41.5 °F 39.2 °F 76% 29.58 in 10.0 mi NE 10.4 mph 20.7 mph N/A   Mostly Cloudy
2:01 PM 46.4 °F 42.4 °F 39.2 °F 76% 29.57 in 10.0 mi NE 8.1 mph 20.7 mph N/A   Overcast
2:22 PM 46.4 °F 43.5 °F 39.2 °F 76% 29.55 in 10.0 mi ENE 5.8 mph - N/A   Overcast
2:41 PM 46.4 °F 42.4 °F 39.2 °F 76% 29.54 in 10.0 mi NE 8.1 mph 18.4 mph N/A   Mostly Cloudy
3:02 PM 46.4 °F 42.4 °F 39.2 °F 76% 29.53 in 10.0 mi NE 8.1 mph - N/A   Mostly Cloudy
3:22 PM 46.4 °F 41.5 °F 39.2 °F 76% 29.52 in 10.0 mi NE 10.4 mph 19.6 mph N/A   Overcast
3:41 PM 46.4 °F 42.4 °F 41.0 °F 81% 29.52 in 10.0 mi NE 8.1 mph 21.9 mph N/A   Light Drizzle
4:02 PM 46.4 °F 42.9 °F 41.0 °F 81% 29.51 in 10.0 mi NNE 6.9 mph 16.1 mph N/A Rain Rain
4:22 PM 44.6 °F 39.7 °F 42.8 °F 93% 29.50 in 10.0 mi NNE 9.2 mph - N/A Rain Rain
4:42 PM 44.6 °F 40.7 °F 42.8 °F 93% 29.50 in 5.0 mi NNE 6.9 mph - N/A Rain Rain
5:02 PM 42.8 °F 36.6 °F 42.8 °F 100% 29.48 in 4.0 mi NNE 11.5 mph 25.3 mph N/A Rain Rain
5:21 PM 42.8 °F 38.6 °F 41.0 °F 93% 29.46 in 5.0 mi NNE 6.9 mph 18.4 mph N/A Rain Rain
5:41 PM 42.8 °F 38.0 °F 41.0 °F 93% 29.45 in 4.0 mi North 8.1 mph 17.3 mph N/A Rain Rain
6:01 PM 42.8 °F 37.0 °F 42.8 °F 100% 29.44 in 4.0 mi NNE 10.4 mph 17.3 mph N/A Rain Rain
6:21 PM 42.8 °F 37.5 °F 42.8 °F 100% 29.43 in 4.0 mi North 9.2 mph 20.7 mph N/A Rain Rain
6:42 PM 42.8 °F 36.6 °F 41.0 °F 93% 29.41 in 4.0 mi NNE 11.5 mph 21.9 mph N/A Rain Rain
7:02 PM 42.8 °F 37.5 °F 42.8 °F 100% 29.40 in 5.0 mi North 9.2 mph 17.3 mph N/A Rain Rain
7:22 PM 42.8 °F 37.0 °F 41.0 °F 93% 29.39 in 5.0 mi NNE 10.4 mph 18.4 mph N/A Rain Rain
7:42 PM 42.8 °F 37.0 °F 41.0 °F 93% 29.38 in 5.0 mi North 10.4 mph 21.9 mph N/A Rain Rain
8:02 PM 42.8 °F 38.6 °F 41.0 °F 93% 29.37 in 4.0 mi North 6.9 mph - N/A Rain Light Rain
8:22 PM 42.8 °F 38.6 °F 41.0 °F 93% 29.36 in 4.0 mi North 6.9 mph 18.4 mph N/A Rain Rain
8:41 PM 42.8 °F 37.0 °F 41.0 °F 93% 29.34 in 5.0 mi North 10.4 mph 19.6 mph N/A Rain Rain
9:02 PM 41.0 °F 35.2 °F 41.0 °F 100% 29.33 in 7.0 mi North 9.2 mph 18.4 mph N/A Rain Light Rain
9:22 PM 41.0 °F 36.4 °F 39.2 °F 93% 29.32 in 10.0 mi North 6.9 mph 19.6 mph N/A Rain Light Rain
9:41 PM 41.0 °F 35.2 °F 39.2 °F 93% 29.31 in 4.0 mi North 9.2 mph 21.9 mph N/A Rain Light Rain
10:02 PM 41.0 °F 34.7 °F 39.2 °F 93% 29.29 in 3.0 mi North 10.4 mph 18.4 mph N/A   Drizzle
10:22 PM 41.0 °F 35.8 °F 39.2 °F 93% 29.29 in 4.0 mi North 8.1 mph - N/A Rain Light Rain
10:41 PM 41.0 °F 36.4 °F 39.2 °F 93% 29.28 in 3.0 mi North 6.9 mph 20.7 mph N/A Rain Light Rain
11:02 PM 41.0 °F 36.4 °F 41.0 °F 100% 29.27 in 4.0 mi North 6.9 mph - N/A   Drizzle
11:22 PM 41.0 °F 39.0 °F 41.0 °F 100% 29.26 in 4.0 mi North 3.5 mph - N/A   Drizzle
11:42 PM 41.0 °F 36.4 °F 41.0 °F 100% 29.25 in 3.0 mi NNW 6.9 mph - N/A   Drizzle